Location: Bittelbronn
(48.4454°N, 8.5870°E)
Time: 13:23:01
(UTC+00:00)

SJ 16-02 - Pass Details

Date: 22 April 2025
Orbit: 587 x 597 km, 75.0° (Epoch: 15 May)

Event Time Altitude Azimuth Distance (km) Brightness Sun altitude
Rises 20:11:52 0° 333° (NNW) 2,849 6.1 -15.7°
Reaches altitude 10° 20:14:11 10° 326° (NNW) 1,943 5.1 -16.0°
Maximum altitude 20:18:16 43° 256° (WSW) 851 2.3 -16.5°
Enters shadow 20:21:30 15° 189° (S) 1,616 3.2 -16.9°
